Regional Weather Roundup
Issued by NWS Upton, NY

Current Version | Previous Version | Text Only | Print | Product List | Glossary Off
Versions: 1 2 3 4 5 6 7 8 9 10 11 12 13 14 15 16 17 18 19 20 21 22 23 24 25 26 27 28

000
ASUS41 KOKX 141908
RWROKX

REGIONAL WEATHER ROUNDUP
NATIONAL WEATHER SERVICE NEW YORK NY
200 PM EST THU DEC 14 2017

NOTE: "FAIR" INDICATES FEW OR NO CLOUDS BELOW 12,000 FEET WITH NO
SIGNIFICANT WEATHER AND/OR OBSTRUCTIONS TO VISIBILITY.

NYZ071-072-176-178-NJZ106-104-142000-
NEW YORK CITY METRO AREA

CITY           SKY/WX    TMP DP  RH WIND       PRES   REMARKS
Central Park   MOSUNNY   31  14  49 W8G23     29.81R WCI  23
Bronx Bot Gard   N/A     32  12  43 NW8       29.82R WCI  25
Bronx Lehman C NOT AVBL
LaGuardia APRT MOSUNNY   33  17  51 NW20G29   29.80R WCI  21
Queens College NOT AVBL
Kennedy INTL   MOSUNNY   31  16  54 NW16      29.81R WCI  20
Breezy Point     N/A     32 N/A N/A NW15G22     N/A  WCI  22
Brooklyn Coll  NOT AVBL
Staten Island  NOT AVBL
Newark/Liberty MOSUNNY   34  17  50 NW15G24   29.81R WCI  24
Teterboro      PTSUNNY   31  14  49 NW12G26   29.80R WCI  22
$$

NYZ177-179-078>081-142000-
LONG ISLAND NEW YORK

CITY           SKY/WX    TMP DP  RH WIND       PRES   REMARKS
Jones Beach      N/A     32 N/A N/A NW20        N/A  WCI  20
Wantagh        NOT AVBL
Matinecock PT    N/A     32 N/A N/A W26G33      N/A  WCI  18
Farmingdale    PTSUNNY   31  16  54 NW16      29.78R WCI  20
MacArthur/ISP  PTSUNNY   32  18  56 NW10      29.76R WCI  24
Shirley        MOSUNNY   31  19  61 NW12G20   29.77R WCI  22
Mt Sinai Harb    N/A    N/A N/A N/A NW13G18     N/A
Westhampton    PTSUNNY   30  18  60 NW17      29.77R WCI  18
East Hampton   PTSUNNY   28  17  62 NW12G17   29.75R WCI  18
Southold       NOT AVBL
Montauk          N/A     32  18  56 NW17G30   29.74R WCI  21
$$

NYZ052-065-067-142000-
HUDSON VALLEY

CITY           SKY/WX    TMP DP  RH WIND       PRES   REMARKS
White Plains   MOSUNNY   30  14  51 W15G26    29.76R WCI  19
Larchmont Harb   N/A    N/A N/A N/A W20         N/A
Croton On Huds   N/A     32 N/A N/A NW21G29     N/A  WCI  20
Somers         NOT AVBL
Brewster       NOT AVBL
Newburgh       MOSUNNY   27  14  59 NW16G23   29.78R WCI  14
Montgomery     SUNNY     27   8  44 NW13G23   29.78R WCI  16
Otisville      NOT AVBL
Warwick        NOT AVBL
Suffern        NOT AVBL
Poughkeepsie   MOSUNNY   27   8  44 NW13G21   29.78R WCI  16
Albany         MOSUNNY   20   4  50 NW18G31   29.82R WCI   5
$$

NJZ001-105-106-008-010-013-015-019>022-104-142000-
NEW JERSEY

CITY           SKY/WX    TMP DP  RH WIND       PRES   REMARKS
Newark/Liberty MOSUNNY   34  17  50 NW15G24   29.81R WCI  24
Teterboro      PTSUNNY   31  14  49 NW12G26   29.80R WCI  22
Caldwell       SUNNY     30  11  45 NW17G24   29.82R WCI  18
Somerville     MOSUNNY   30  13  49 NW13G25   29.82R WCI  20
Linden         FAIR      32  15  49 NW17G24   29.82R WCI  21
Perth Amboy      N/A    N/A N/A N/A W20G25      N/A
Sussex         MOSUNNY   26   9  48 W9G18     29.81R WCI  17
Andover          N/A     27  10  49 NW8G20    29.81R WCI  19
Trenton        MOSUNNY   32  15  49 NW14G24   29.84R WCI  22
Millville      SUNNY     35  20  54 NW14G23   29.86R WCI  26
Atlantic City  MOSUNNY   37  22  54 NW21G29   29.83R WCI  26
Wrightstown    SUNNY     33  18  55 W15       29.82R WCI  22
Toms River     MOSUNNY   33  20  58 NW15G21   29.83R WCI  23
Belmar         MOSUNNY   32  18  56 NW17        N/A  WCI  21
$$

PAZ047>061-062-071-142000-
EASTERN PENNSYLVANIA

CITY           SKY/WX    TMP DP  RH WIND       PRES   REMARKS
Philadelphia   MOSUNNY   34  16  47 NW15      29.88R WCI  24
Allentown      CLOUDY    30  13  49 W14G20    29.85R WCI  19
Scranton       PTSUNNY   22  12  65 NW13      29.84R WCI  10
$$

CTZ002-004>006-009-010-012-RIZ004-006-007-MAZ004-011-015-142000-
SOUTHERN NEW ENGLAND
 IN CT

CITY           SKY/WX    TMP DP  RH WIND       PRES   REMARKS
Bradley INTL   MOSUNNY   26   8  46 NW14G22   29.75R WCI  14
Hartford       SUNNY     28   9  44 NW14G22   29.76R WCI  17
Danbury        CLOUDY    30  15  53 NW10      29.76R WCI  21
Wtrbury/Oxford PTSUNNY   26  14  60 NW10G16   29.73R WCI  16
Norwalk Harbor   N/A    N/A N/A N/A W18         N/A
Bridgeport     PTSUNNY   31  14  49 NW15G25   29.77R WCI  20
Meriden        SUNNY     27  11  51 W15G24    29.76R WCI  15
New Haven      PTSUNNY   30  14  51 NW13G21   29.76R WCI  20
Chester        FAIR      30  10  43 N17G25    29.73R WCI  18
Groton         FLURRIES  29  15  56 NW9       29.72R WCI  20
Wilimantic     SUNNY     28  11  48 NW14G26   29.73R WCI  17

 IN RI

CITY           SKY/WX    TMP DP  RH WIND       PRES   REMARKS
Providence     MOSUNNY   29  14  53 NW12G23   29.70R WCI  19
Block Island   MOSUNNY   30  18  60 NW14G22   29.71R WCI  19
Westerly       MOSUNNY   30  15  53 NW10G17   29.72R WCI  21
 IN MA

CITY           SKY/WX    TMP DP  RH WIND       PRES   REMARKS
Boston         MOSUNNY   30   4  33 W22G30    29.67R WCI  17
Worcester      MOSUNNY   24   4  42 W16G24    29.63R WCI  11
Westfield      SUNNY     25   3  38 NW17G25   29.74R WCI  12
Provincetown   PTSUNNY   29  17  61 NW16G23   29.66R WCI  17
Nantucket      CLOUDY    29  21  72 NW16      29.65R WCI  17
$$

ANZ330-335-338-340-345-350-353-355-142000-
COASTAL MARINE OBSERVATIONS


STATION/POSITION TIME  SKY/WX   TEMP    WIND        PRES    VSBY  WAVE
                                AIR SEA DIR/SP/G                  HT/PER
                 (UTC)          (F)     (DEG/KT/KT) (MB)    (MI)  (FT/S)
NY HARB ENTRANCE 1750            32 53  310/ 17/ 23 1007.3          4/ 8
20 S FIRE ISLAND 1750            32 52  330/ 17/ 21 1006.7          6/ 8
GREAT SOUTH BAY  1800            30 45  320/ 12/ 17   N/A
HUDSON CANYON    1750            41 56  310/ 23/ 29 1005.2          9/ 8
KINGS POINT      1836            31 43   10/ 12/ 16 1009.3
EXECUTION ROCKS  1815            34     320/ 16/ 21   N/A
WESTERN LI SOUND NOT AVBL
CENTRAL LI SOUND 1800            29     290/ 12/ 17   N/A           1
ROBBINS REEF     1836            31     310/ 17/ 25 1009.3
$$


>>>>>>>>>>>>>>>>>>>>>>>>>>>> KEY <<<<<<<<<<<<<<<<<<<<<<<<<<<
>                                                          <
>     SKY/WX - Sky Condition/Present Weather               <
>     TMP    - Temperature in Fahrenheit                   <
>     DP     - Dew Point in Fahrenheit                     <
>     RH     - Relative Humidity in Percent                <
>     WIND   - Direction (from) and Speed in MPH           <
>     PRES   - Mean Sea Level Pressure (inches of Hg)      <
>     WCI    - Wind Chill Index                            <
>     VSB    - VISIBILITY IN MILES                         <
>     HX     - HEAT INDEX                                  <
>     TC     - TEMPERATURE IN CELSIUS                      <
>     VRB    - VARIABLE WIND DIRECTION                     <
>                                                          <
>>>>>>>>>>>>>>>>>>>>>>>>>>>> KEY <<<<<<<<<<<<<<<<<<<<<<<<<<<




USA.gov is the U.S. government's official web portal to all federal, state and local government web resources and services.